Wind_Speed
8 7 9 11 12 14 13 12 9 4 4 7 9 8 8 7 7 9 7 8 13 13 13 16 15 15 12 11 12 13 15 15 15 15 12 12 13 12 13 13 14 16 13 11 12 12 13 14 13 11 10 10 12 13 13 14 16 17 17 15 14 14 14 15 15 14 14 14 13 12 12 12 13 13 13 13 12 12 11 10 9 8 7 7 7 7
8 9 13 13 8 8 9 8 9 7 4 3 10 10 8 8 7 8 10 8 9 10 9 12 14 15 13 11 12 13 15 15 15 16 15 16 15 12 13 15 15 13 10 9 10 12 13 14 14 12 10 12 13 14 15 15 16 17 17 15 14 13 14 16 18 16 15 14 13 12 12 14 14 14 14 14 13 13 12 11 11 10 8 9 9 9
9 12 13 10 6 7 11 10 12 14 8 1 6 10 8 7 5 6 9 7 9 8 5 9 12 11 10 11 13 14 15 15 15 17 17 17 17 15 15 16 15 12 9 10 10 12 14 13 14 13 11 12 14 14 15 16 18 17 16 16 15 15 15 16 17 15 12 11 11 11 12 14 15 14 14 15 14 13 11 10 12 12 11 10 11 11
10 10 9 11 8 10 12 13 14 13 10 4 3 8 8 8 7 6 8 7 7 4 2 10 11 6 6 8 11 13 14 12 14 17 16 15 16 17 16 13 13 13 12 11 10 11 14 14 14 14 13 12 14 15 16 18 18 17 17 18 18 17 16 14 12 12 12 12 12 13 14 16 16 15 14 14 14 12 12 13 13 13 13 13 13 12
8 3 10 15 12 12 12 14 16 12 9 7 4 5 6 10 9 4 5 7 6 2 3 10 8 4 6 9 9 10 11 12 13 15 15 14 14 14 13 11 12 13 12 12 12 11 13 14 14 14 14 13 14 15 17 18 18 19 20 22 19 17 15 12 12 14 16 17 16 17 17 16 16 16 15 14 13 12 14 15 15 14 14 14 12 11
8 1 10 18 15 13 12 12 16 14 9 8 7 7 5 8 11 5 8 10 7 5 7 10 7 5 6 9 10 9 9 11 12 13 15 16 15 13 12 12 12 12 12 12 11 11 12 14 14 14 15 15 15 16 17 18 19 20 22 21 19 16 13 13 15 18 20 21 21 22 23 22 20 18 18 18 16 15 16 16 16 16 15 13 11 10
8 5 7 16 17 16 13 11 15 15 10 7 6 8 6 4 8 8 9 10 7 5 7 9 8 4 4 9 11 11 11 12 12 13 15 14 14 14 12 11 11 12 12 11 12 12 12 14 14 14 16 17 16 16 16 17 20 21 20 18 17 16 14 16 20 22 22 23 23 24 24 23 22 21 20 21 21 19 18 17 17 16 14 12 11 10
10 11 7 11 16 16 13 10 14 16 12 7 4 7 9 5 5 7 8 8 3 2 5 7 6 3 4 7 11 13 14 15 15 14 14 12 14 16 15 13 12 13 12 11 12 13 13 15 16 16 17 17 16 16 15 16 19 19 18 17 16 16 16 18 21 23 23 22 22 22 22 21 21 21 22 23 23 21 20 18 17 16 14 12 10 8
12 17 11 9 12 13 11 8 12 16 11 5 4 6 9 8 5 4 5 5 2 3 7 8 6 5 4 4 10 14 15 17 18 17 17 16 18 19 18 17 14 13 12 12 12 13 13 15 17 18 17 17 17 17 16 17 18 17 17 17 17 17 18 18 19 21 21 21 22 22 21 21 20 21 24 25 24 23 21 19 17 15 14 11 8 6
8 16 12 9 9 8 9 9 12 16 9 5 6 5 4 5 4 2 3 3 3 5 10 10 10 8 3 4 10 13 14 16 15 16 17 17 19 19 19 19 16 12 12 13 12 12 14 17 17 17 17 18 18 17 17 18 18 17 16 16 17 17 17 17 17 20 20 20 22 21 20 22 22 22 25 26 25 25 22 19 17 15 12 10 8 6
4 12 11 7 7 6 9 9 11 16 10 7 8 6 4 3 2 2 1 1 3 6 6 11 13 9 4 6 10 11 11 14 13 12 15 16 18 19 18 19 18 14 11 12 12 12 15 18 18 17 17 18 18 18 19 20 19 18 17 17 16 16 15 14 15 18 19 18 19 20 22 25 25 25 27 26 26 25 22 20 18 15 13 10 8 7
5 9 9 6 7 7 10 10 10 15 12 7 9 8 5 4 2 2 2 1 6 6 3 9 12 9 8 6 8 10 10 13 15 13 16 19 20 19 18 17 18 15 12 12 12 12 14 16 18 18 18 19 20 20 20 20 20 18 17 16 16 14 12 12 13 16 19 18 17 20 24 27 28 29 29 27 27 25 22 20 18 15 13 11 9 7
6 6 6 7 9 11 12 10 8 11 11 8 10 8 6 6 4 5 6 4 6 3 2 7 12 8 7 3 8 14 13 15 17 15 17 20 20 19 17 16 16 14 12 11 11 12 13 13 16 19 21 21 22 23 21 20 18 17 16 16 15 13 11 12 13 15 19 19 18 22 26 27 28 29 28 27 27 24 22 19 17 16 14 12 11 9
4 3 6 9 9 11 12 11 9 10 12 12 12 11 9 8 6 8 7 4 4 2 3 5 10 7 4 2 9 17 17 18 18 17 17 16 15 15 15 16 15 13 11 10 11 11 12 13 15 19 22 22 22 23 22 20 18 17 16 16 14 12 13 15 14 16 19 18 18 23 26 26 28 28 27 27 26 23 21 18 17 16 14 13 12 11
6 5 9 11 7 11 15 12 8 8 10 10 7 7 8 5 3 5 5 4 4 4 4 5 6 5 4 3 7 14 16 17 16 14 12 8 7 9 12 15 16 14 12 11 12 11 13 15 17 20 23 22 23 23 22 21 20 19 17 17 16 14 14 17 16 16 18 17 17 22 25 26 27 28 27 27 25 23 20 19 17 15 13 13 13 12
7 4 7 7 3 11 15 8 5 8 9 5 1 4 7 4 1 2 1 2 4 4 4 4 3 2 2 1 1 4 8 11 11 9 6 5 7 9 11 15 17 15 14 14 14 13 14 18 19 21 22 22 23 23 22 22 21 20 18 16 16 15 16 18 18 18 19 17 18 22 25 25 27 27 27 27 25 22 21 19 17 15 14 13 13 13
7 3 7 6 3 11 14 9 8 8 7 5 4 7 5 2 2 2 2 2 2 5 4 3 3 1 2 0 2 2 6 8 10 10 9 8 11 12 12 15 16 16 15 15 14 14 15 17 19 20 22 22 22 21 22 23 22 21 19 16 15 15 18 18 17 20 22 21 22 24 25 27 28 27 27 26 24 22 21 19 17 17 16 14 13 14
4 4 6 9 9 9 8 10 11 6 3 5 7 6 4 3 1 0 3 2 3 6 3 2 4 4 5 3 2 4 8 9 10 13 13 11 12 13 13 15 17 17 15 14 14 14 15 17 19 20 21 21 21 22 23 24 24 21 18 17 17 18 19 19 17 21 25 25 25 27 28 29 29 28 27 26 25 24 22 20 19 18 17 15 14 15
2 4 5 9 11 8 4 8 11 5 1 3 4 4 3 4 4 1 2 3 5 5 3 3 3 3 5 5 3 7 11 11 11 13 14 15 15 15 14 16 18 17 14 13 14 13 13 17 20 21 20 21 22 22 22 24 24 20 16 18 20 19 19 20 19 21 23 25 26 29 30 29 29 28 28 27 25 24 23 21 20 19 18 16 15 17
1 2 5 6 6 8 6 7 10 9 3 0 4 5 1 2 4 2 1 1 3 4 3 4 2 3 5 4 6 11 13 13 13 12 14 17 18 16 14 16 18 16 13 13 15 14 14 17 20 21 21 21 21 20 21 23 22 18 18 20 21 19 20 20 20 21 22 24 26 28 30 29 28 29 28 27 26 24 23 22 21 20 18 17 16 17
1 0 4 4 2 6 7 6 9 11 8 5 8 8 4 2 1 2 1 0 1 2 3 3 3 3 4 4 8 12 13 14 16 15 15 17 17 16 15 17 18 16 15 14 15 15 16 17 19 20 19 19 20 19 21 22 20 17 20 23 22 21 23 22 22 23 23 25 27 28 30 29 29 30 29 28 27 25 24 23 22 20 18 16 16 18
0 1 2 5 5 6 5 4 6 9 8 7 6 4 5 5 3 5 6 2 1 0 1 3 3 3 3 2 5 8 8 11 16 17 15 15 16 15 15 17 18 17 16 16 15 16 15 16 18 20 19 19 19 19 20 21 19 18 20 22 22 24 25 25 24 25 25 26 29 30 31 31 31 31 30 29 27 25 24 23 22 20 18 16 17 18
1 0 1 4 4 3 3 3 4 9 8 6 5 4 5 5 4 7 7 3 2 1 1 1 2 1 2 0 3 3 3 6 9 10 9 9 12 14 15 17 17 15 14 15 15 14 14 15 19 20 20 20 19 19 20 20 19 17 19 21 22 24 26 26 25 26 26 27 29 30 31 31 31 30 30 29 28 26 25 23 22 20 17 16 19 20
3 1 1 5 3 1 2 3 2 8 9 7 7 6 7 7 4 3 2 1 3 4 2 1 2 1 1 1 2 2 3 6 7 6 7 8 10 13 16 17 16 14 14 15 14 12 13 15 17 18 20 20 19 19 18 19 19 17 18 22 24 25 27 27 26 27 27 27 28 29 30 31 31 30 30 29 27 26 25 24 22 19 17 18 21 21
2 1 1 6 7 4 3 4 4 8 9 9 8 6 7 8 4 1 1 2 3 3 3 2 3 2 2 1 1 2 6 9 9 9 10 11 12 14 15 16 16 15 15 15 15 14 14 14 14 17 18 18 19 19 18 19 19 18 20 24 25 25 28 28 28 28 29 29 29 29 29 29 29 29 28 28 26 26 25 24 22 19 18 20 22 22
1 1 1 4 8 8 8 7 5 6 8 8 7 7 7 9 10 5 2 3 5 2 2 4 6 5 1 3 4 4 6 9 10 11 12 12 14 15 14 13 14 15 15 15 15 16 16 14 13 16 18 18 18 19 20 19 19 21 24 27 27 27 29 30 29 30 30 29 30 30 29 29 28 28 28 27 26 26 25 24 21 20 20 20 21 22
1 1 1 1 3 5 4 3 2 4 7 7 8 9 7 7 9 6 2 4 5 2 2 5 5 7 8 2 5 5 7 9 11 13 14 14 16 16 13 13 13 12 13 14 13 13 15 13 13 16 19 20 18 19 22 21 20 24 28 27 27 29 30 30 30 30 29 30 30 30 29 29 28 28 27 27 27 26 25 23 22 21 20 20 21 23
1 1 0 1 3 4 3 2 1 6 11 11 10 11 8 6 8 8 6 4 3 3 5 5 2 4 12 8 4 7 8 9 12 14 14 15 17 16 14 14 14 14 15 15 13 13 14 14 13 15 18 21 20 20 22 21 22 27 30 29 28 29 29 30 30 30 30 30 31 30 29 28 27 27 27 27 27 26 25 24 22 21 20 20 22 23
1 1 0 1 4 7 8 6 5 6 9 11 11 10 9 8 9 9 6 3 4 6 6 3 2 6 11 7 1 6 9 10 12 13 13 15 16 17 16 16 16 17 18 16 14 14 15 14 15 16 18 21 22 22 21 20 21 24 26 29 30 29 30 31 31 30 30 30 30 30 29 28 27 26 26 26 27 27 25 24 22 20 19 20 22 23
1 0 1 2 6 9 8 6 7 6 6 9 11 11 11 9 10 10 7 5 5 5 4 0 3 9 8 4 2 4 8 9 10 11 14 17 18 19 19 18 16 17 18 17 16 16 16 15 15 18 19 20 23 25 24 21 21 22 24 29 33 31 30 31 31 30 29 29 29 29 28 27 26 26 26 27 28 27 25 23 21 19 20 21 23 24
1 1 1 2 5 6 4 1 8 10 8 8 9 9 11 11 10 9 6 4 3 5 4 1 4 9 5 0 0 4 8 10 12 14 16 17 19 20 20 19 17 17 18 18 17 16 16 16 16 17 20 21 24 26 24 23 25 26 24 28 34 34 32 31 30 30 29 28 29 29 27 26 26 26 28 28 27 26 23 21 20 20 21 22 24 24
1 1 0 2 4 3 4 3 7 8 7 8 7 8 11 11 8 6 4 4 6 7 3 1 6 7 1 3 4 6 9 11 13 16 16 17 18 20 21 21 18 18 19 18 17 16 16 17 18 19 22 25 26 24 23 24 26 26 22 24 32 35 33 31 30 29 29 28 29 29 27 27 27 28 29 28 26 24 22 20 20 20 22 23 24 25
1 2 2 2 3 3 5 3 9 10 6 5 6 9 12 9 5 4 2 4 6 6 4 5 6 3 1 5 7 8 11 12 13 16 16 17 20 20 20 20 19 19 20 19 19 19 18 17 20 22 25 26 25 24 26 28 28 26 25 27 32 34 33 31 30 29 29 28 28 28 28 29 29 30 30 28 26 24 22 21 20 21 22 24 25 25
2 3 2 2 2 3 5 2 8 9 5 3 1 5 8 8 8 8 6 6 8 5 2 3 2 2 3 8 7 8 11 10 10 13 14 15 17 16 17 20 20 20 20 19 19 20 18 17 20 22 23 22 22 25 32 35 32 30 32 33 34 34 33 31 30 30 29 28 28 29 30 31 32 32 31 29 27 25 23 22 21 21 21 23 24 24
2 2 1 1 2 2 2 2 6 5 2 0 2 0 2 3 6 8 6 6 8 7 5 4 2 3 6 8 5 5 7 5 6 11 14 15 16 16 17 20 21 21 21 20 19 20 20 21 23 23 23 23 24 28 33 35 32 30 32 35 36 35 34 32 32 32 31 29 30 32 33 33 33 33 32 30 28 25 23 21 19 20 20 21 22 22
2 2 1 1 1 1 1 3 4 1 1 2 3 2 2 2 3 5 5 4 6 9 8 4 2 3 5 6 4 4 5 5 5 8 12 15 17 18 19 20 21 22 21 20 19 20 21 23 25 26 25 25 27 29 31 32 32 30 30 32 35 35 34 34 34 34 33 33 34 35 35 35 35 34 33 31 29 27 24 20 19 20 20 20 21 23
3 2 2 1 1 1 1 1 1 0 1 2 3 2 2 2 2 3 4 4 3 6 7 3 1 3 4 4 4 6 7 6 5 7 12 16 18 18 18 19 20 19 19 19 20 19 20 22 23 25 27 27 27 29 31 31 32 32 31 31 31 31 32 34 35 36 37 37 37 37 37 37 36 36 34 33 31 30 25 20 20 22 22 22 23 25
2 2 2 1 2 1 0 1 2 2 2 1 1 0 1 2 1 1 3 3 1 2 5 5 3 5 6 5 6 8 8 5 4 6 12 17 17 16 16 15 15 16 17 19 20 19 20 22 23 26 28 28 26 28 31 33 33 33 31 31 31 30 30 33 34 37 39 39 39 40 39 38 38 37 36 36 34 29 24 21 23 24 23 23 24 25
2 1 1 1 1 1 1 1 2 2 2 1 2 1 1 1 2 2 4 4 1 1 4 6 6 7 9 9 10 10 7 4 2 3 10 16 17 16 16 15 14 15 17 20 22 21 23 24 25 26 27 26 25 29 33 35 34 31 28 29 31 30 30 33 35 38 40 40 40 40 39 39 38 37 39 37 32 27 25 24 25 24 24 24 24 25
3 1 2 3 2 1 1 1 1 1 1 1 3 3 1 2 4 5 5 3 1 1 4 6 7 9 10 10 11 9 5 2 2 1 8 16 15 14 15 16 16 17 19 21 22 22 24 26 26 26 26 26 26 29 33 32 30 27 25 26 28 28 31 36 38 40 40 40 40 40 39 39 38 38 39 35 30 28 27 26 25 26 26 25 25 25
2 2 2 2 2 0 1 1 0 0 0 1 3 2 1 2 4 5 4 1 1 1 3 5 7 10 11 12 10 6 2 2 5 3 8 15 15 14 14 15 16 18 19 22 22 22 23 24 26 27 27 26 26 28 29 29 26 23 23 25 25 26 31 37 39 39 39 39 39 39 38 38 37 37 36 32 30 30 28 25 26 27 26 26 25 25
1 1 1 1 1 0 0 0 0 1 0 1 3 2 1 2 3 2 0 1 1 2 1 4 7 8 11 11 7 2 1 3 4 2 11 15 14 14 14 13 15 16 17 20 23 24 23 22 24 25 24 23 26 27 28 28 25 23 23 25 25 25 29 35 37 37 37 38 39 38 38 37 37 36 34 32 31 30 27 26 27 26 26 26 26 25
1 1 1 2 1 0 1 1 1 1 1 2 3 1 0 0 1 0 1 0 1 2 2 3 5 7 10 10 6 2 1 2 3 6 11 12 12 13 13 12 14 14 15 18 21 24 23 22 23 23 22 24 27 28 27 27 25 22 23 25 24 24 28 34 37 38 38 39 39 38 38 37 37 35 33 32 32 30 27 27 28 27 27 27 26 25
2 1 2 1 1 0 1 2 2 1 1 2 2 1 1 2 1 1 2 1 0 1 2 2 3 6 9 9 6 3 1 2 3 7 10 10 11 12 12 12 13 14 16 18 21 23 23 22 22 22 21 24 28 28 27 27 24 22 22 24 24 25 29 33 36 37 36 37 39 38 37 36 36 35 33 33 33 31 30 30 30 29 28 27 26 25
1 1 1 1 1 1 2 2 2 3 4 3 1 2 3 4 2 2 2 2 1 0 1 1 0 4 7 8 6 4 1 1 3 6 8 10 12 13 14 14 13 15 17 18 20 22 22 22 22 22 20 22 26 28 28 28 26 24 23 25 28 29 30 34 36 35 34 36 38 38 36 34 34 35 34 34 34 33 33 33 31 29 28 26 25 23
1 1 1 1 2 1 2 3 2 2 4 4 3 3 4 4 3 2 2 2 3 2 1 1 2 1 5 7 6 4 2 3 4 6 7 9 11 12 13 13 13 15 17 18 20 21 21 21 21 21 20 20 23 26 28 27 27 26 25 27 30 31 32 35 36 34 32 34 36 38 37 36 35 35 34 34 34 34 34 35 33 30 27 24 22 21
1 2 2 1 1 1 0 1 1 1 2 5 5 3 2 3 3 3 2 2 3 3 2 1 2 0 3 7 7 6 4 5 6 7 7 9 10 12 13 13 14 16 17 18 19 20 20 20 20 20 20 20 21 25 28 26 26 27 27 29 32 33 34 36 35 32 31 33 34 35 37 37 35 33 33 33 33 32 33 34 33 31 28 24 21 20
1 1 1 0 0 1 0 1 3 2 1 3 4 2 2 4 5 4 3 2 3 2 2 1 1 1 3 5 6 6 5 5 5 6 8 9 9 11 12 12 14 16 17 18 20 21 20 19 20 21 21 20 22 28 30 28 27 27 28 31 34 35 36 37 35 34 34 34 33 33 36 36 34 32 31 32 31 29 29 31 31 30 29 27 24 23
1 1 0 1 0 1 0 1 2 1 1 1 2 2 3 4 5 5 4 4 3 3 4 4 3 3 3 4 4 4 5 3 3 4 6 8 8 9 10 11 14 17 18 18 20 21 20 20 20 21 20 20 23 27 27 26 26 28 30 32 35 36 37 37 35 33 33 33 32 32 34 35 34 32 31 31 31 30 30 31 30 29 30 31 29 27
1 1 1 1 1 0 1 1 1 1 1 1 3 5 5 3 3 4 4 4 5 4 4 4 4 4 4 4 2 3 4 3 3 4 6 6 8 9 10 12 14 16 17 17 17 17 18 20 21 21 20 21 23 24 23 24 27 28 30 33 35 36 38 36 34 32 31 31 32 32 33 34 33 32 32 31 31 30 30 31 31 30 30 30 30 28
1 1 2 2 1 0 1 2 2 2 1 1 2 4 4 3 2 2 2 3 3 3 3 3 4 4 4 4 3 1 3 4 4 5 6 6 7 10 12 14 15 16 17 17 17 16 16 18 20 21 21 22 23 22 22 25 27 28 31 34 36 37 38 37 35 32 30 30 32 33 34 33 32 31 31 30 30 30 28 26 27 27 27 27 27 26
Wind_Direction
188 191 205 204 203 197 192 200 206 348 6 154 158 181 188 180 184 188 183 181 181 189 200 197 198 200 188 181 188 189 191 199 202 200 204 205 204 203 205 210 213 219 219 203 192 184 189 197 191 184 175 171 177 181 181 181 180 175 169 166 166 169 171 172 175 175 178 181 178 179 180 177 180 185 186 187 190 194 193 190 201 205 190 180 175 169
190 211 217 206 194 178 177 189 206 244 295 165 177 182 189 196 186 186 189 177 183 199 198 190 197 198 189 181 185 188 192 200 202 200 203 204 204 203 207 212 214 217 212 197 188 179 188 191 186 183 174 171 170 171 175 174 170 167 165 163 164 170 175 181 184 181 181 183 177 173 174 175 175 180 183 184 188 190 187 189 193 183 169 166 162 157
201 225 216 185 150 159 176 184 198 219 243 302 191 183 186 193 169 180 197 176 180 205 187 179 198 199 187 186 187 189 195 200 203 204 205 203 203 204 208 212 212 208 203 199 193 187 190 184 179 181 177 174 170 169 172 169 168 163 159 167 175 180 181 185 186 180 175 178 178 169 166 171 170 174 186 186 183 184 182 181 170 156 154 157 152 148
207 224 188 158 164 174 174 181 192 211 227 246 209 194 185 173 171 186 196 177 169 201 171 175 196 202 183 192 194 196 200 202 206 208 208 205 208 211 212 214 210 206 205 204 199 192 192 187 180 178 174 170 167 166 166 169 168 153 157 178 185 187 184 178 172 166 164 162 159 163 172 178 174 174 182 177 169 170 172 165 152 145 148 149 143 140
210 200 159 168 185 184 173 179 189 199 215 222 224 219 185 168 187 182 149 153 149 178 161 161 185 215 193 193 194 198 205 208 207 205 205 206 213 216 215 218 214 209 209 206 199 193 192 192 188 179 172 168 166 165 164 167 158 148 170 191 190 186 181 167 158 159 163 161 159 166 173 174 167 159 157 157 154 153 154 149 142 142 143 139 135 134
213 192 167 176 182 186 182 182 189 194 201 214 222 230 216 179 192 163 128 150 163 199 184 165 188 208 193 198 191 187 199 205 203 203 207 208 212 214 214 217 214 209 209 202 194 189 185 187 188 180 171 169 168 165 162 161 156 163 185 194 189 184 173 157 156 164 172 176 176 173 167 163 158 147 148 157 157 150 148 144 143 144 141 138 138 135
206 209 185 180 179 181 191 192 188 188 195 209 207 207 215 192 188 176 159 170 183 193 183 192 212 198 183 207 196 185 192 196 195 204 212 210 209 213 214 213 209 208 203 191 185 183 178 178 182 179 171 169 168 164 160 158 162 175 185 185 184 181 168 157 160 172 184 186 181 175 169 166 162 153 151 158 157 151 150 148 146 144 139 138 137 132
191 201 207 188 181 180 193 197 182 184 194 198 161 171 190 191 176 171 174 192 201 119 160 199 221 222 210 203 188 185 195 200 200 206 210 207 210 214 216 211 206 205 196 185 185 184 179 177 182 184 174 167 165 162 160 159 165 176 179 180 181 175 165 161 163 176 190 188 177 171 169 168 168 162 154 154 153 149 148 147 143 138 133 130 126 123
182 202 206 187 189 192 191 177 170 185 193 177 153 164 183 194 188 164 173 186 152 170 193 190 191 213 212 170 176 185 196 205 206 207 209 210 213 216 217 214 206 201 193 186 187 185 181 179 182 185 175 164 164 164 163 163 166 173 175 175 174 170 165 161 161 171 186 191 181 175 172 167 167 161 153 152 151 148 148 147 140 135 130 125 124 119
180 203 203 186 198 196 173 154 163 187 192 149 156 153 149 183 196 203 210 160 132 214 209 180 180 206 202 158 182 188 196 205 206 208 211 213 217 218 218 215 206 197 191 187 183 180 180 179 179 179 172 166 167 168 169 169 170 173 173 172 171 170 164 159 163 171 180 187 182 181 179 170 165 158 152 151 149 147 148 145 140 137 133 129 128 119
195 196 196 190 201 183 161 159 168 186 185 136 149 158 132 147 169 203 241 98 187 227 201 170 182 207 216 191 192 191 194 197 196 204 211 213 218 219 218 215 209 199 190 185 179 173 173 174 174 172 169 168 169 172 175 176 178 178 178 179 174 168 163 163 172 179 182 184 184 186 182 175 171 164 157 151 147 147 146 143 141 139 135 133 128 119
221 187 183 178 191 180 167 170 174 183 184 163 172 181 167 159 150 164 149 172 218 218 163 162 176 201 222 201 189 196 192 191 195 200 205 210 215 216 214 213 211 203 189 182 177 169 168 169 169 167 166 167 170 173 173 173 179 182 182 184 175 164 166 166 166 179 190 189 186 185 180 177 174 168 162 156 151 150 147 144 143 140 138 136 130 124
224 188 172 164 184 191 179 172 172 182 189 193 186 180 181 178 167 184 184 193 213 205 84 161 168 191 233 208 183 198 198 196 201 203 204 208 211 211 209 208 208 199 183 179 178 170 169 171 168 165 165 165 169 172 172 174 181 183 182 182 170 157 157 158 162 182 193 186 179 180 177 175 173 169 166 161 156 153 151 149 148 147 146 140 135 133
203 192 180 170 180 196 190 177 173 180 189 196 192 186 187 180 175 191 190 180 185 150 62 161 173 189 231 186 183 196 201 201 203 208 209 208 205 202 199 202 203 191 174 175 181 174 169 168 165 164 166 166 167 171 175 177 177 176 177 176 168 152 148 156 170 186 188 180 174 176 176 173 172 170 168 164 159 155 155 156 156 152 147 142 139 139
176 173 180 179 173 186 195 192 174 167 183 199 200 191 194 194 191 188 179 167 155 127 101 151 182 190 172 160 187 195 201 202 202 208 209 197 179 176 186 199 203 193 182 181 182 176 167 165 164 165 167 168 168 171 173 171 167 168 171 173 168 155 151 162 173 184 189 183 171 171 175 176 175 172 168 165 160 158 159 159 155 149 144 141 139 141
183 164 167 179 167 179 191 195 158 154 178 204 214 192 204 205 165 75 100 127 114 115 131 163 211 233 158 48 357 193 196 200 205 209 196 170 161 165 182 198 203 197 190 188 184 176 168 165 164 166 166 165 166 165 164 163 164 166 167 166 163 158 165 172 172 176 186 184 168 170 176 175 174 171 167 164 160 158 159 157 151 145 142 139 138 144
181 149 156 173 194 191 185 178 184 183 173 172 188 195 192 122 96 111 109 44 96 160 160 171 213 228 184 184 23 147 173 186 204 207 198 185 173 174 187 198 201 197 190 187 182 175 170 166 163 165 167 164 161 160 162 164 165 165 165 165 164 166 175 178 169 168 179 180 166 169 177 175 173 172 168 165 161 157 157 154 148 144 141 139 139 146
178 135 164 183 186 190 181 174 194 215 150 162 191 181 120 71 10 128 146 121 172 180 163 174 200 189 180 175 76 163 181 188 198 199 196 190 180 183 192 196 196 192 186 181 173 170 171 168 164 164 166 162 160 162 163 165 168 169 169 174 174 174 176 175 169 169 175 175 163 164 175 176 172 172 170 167 162 158 156 152 147 144 142 141 142 148
210 135 162 197 185 165 161 182 193 211 206 191 185 151 123 185 200 194 158 169 177 177 156 168 202 221 198 187 154 176 192 196 191 189 190 189 190 193 191 191 190 185 180 174 168 169 170 169 167 164 161 159 159 162 163 165 171 173 172 176 177 177 178 177 175 171 169 168 162 163 173 175 171 172 170 165 161 158 155 151 149 148 144 143 145 151
280 136 159 204 191 152 156 192 193 188 186 22 171 169 191 228 201 190 155 168 185 179 160 162 183 225 212 198 179 184 196 196 185 183 187 190 196 195 185 186 185 178 173 169 165 167 168 167 165 162 159 158 158 160 162 165 169 169 167 170 170 170 175 177 176 172 166 165 165 165 169 171 169 169 167 164 163 160 156 153 152 150 145 143 147 153
340 231 159 153 160 166 177 202 197 187 179 178 186 183 177 174 208 226 205 77 181 182 171 177 196 208 198 194 192 192 196 191 183 184 190 194 196 189 181 184 182 174 172 169 164 162 163 159 155 154 155 156 156 156 161 164 163 162 163 165 165 164 169 172 171 171 167 164 166 165 166 168 167 166 166 165 163 159 156 154 153 150 145 144 151 156
131 299 154 146 170 180 164 152 182 189 180 179 187 181 181 181 171 199 203 167 71 222 186 184 210 214 177 180 211 207 201 193 187 187 191 193 189 180 180 183 178 171 171 172 168 162 160 154 148 150 151 151 153 154 158 160 158 159 160 161 163 164 166 167 167 169 168 164 164 163 163 165 165 164 164 162 160 158 156 155 153 151 146 147 155 160
160 296 140 142 167 173 113 97 182 178 159 168 196 182 182 192 192 200 200 164 140 176 33 170 215 191 116 30 256 244 243 210 194 189 185 180 178 176 178 177 170 165 166 169 165 158 155 151 147 148 150 149 151 153 155 156 156 157 157 159 161 162 165 168 168 169 167 162 160 159 158 162 163 163 162 160 160 159 156 154 153 152 150 152 159 163
172 250 119 114 119 164 95 67 156 162 152 176 203 192 187 195 203 211 197 158 191 193 166 200 228 188 121 334 292 237 204 190 182 180 170 163 170 174 172 169 163 159 159 161 157 147 143 144 143 148 152 151 151 152 153 155 156 154 155 159 161 162 166 169 168 166 163 158 157 158 159 160 162 162 161 160 160 157 155 155 155 155 155 157 161 164
185 251 162 132 140 165 151 125 156 178 185 195 195 187 188 181 156 115 150 182 215 209 172 201 251 245 148 83 37 133 163 171 169 167 166 166 172 171 166 166 162 156 154 154 150 143 141 144 146 149 151 150 151 152 152 155 155 153 155 158 160 161 163 165 165 163 162 160 158 158 159 158 159 160 160 160 159 157 157 157 156 157 159 160 163 165
146 222 216 144 150 167 179 178 177 180 188 193 179 167 181 182 173 172 169 182 205 204 144 205 247 266 229 116 103 122 152 163 162 159 161 168 171 167 162 164 162 158 155 151 149 147 146 148 151 151 150 149 149 151 152 154 153 151 156 161 163 163 162 163 166 164 162 161 158 157 157 158 159 161 161 161 160 158 159 159 159 160 161 164 166 166
62 228 265 246 184 182 185 171 106 126 161 180 172 162 171 188 184 182 183 189 193 160 167 219 248 286 286 253 129 145 166 166 167 166 165 169 170 164 160 160 160 159 157 152 148 147 147 148 151 153 152 149 149 153 153 153 153 153 157 162 164 163 161 162 165 163 160 160 158 157 158 160 162 163 163 162 161 160 161 161 162 163 164 167 169 169
69 304 223 254 260 270 284 299 136 164 176 180 176 171 173 176 180 191 202 187 156 162 223 233 174 259 274 271 168 171 180 175 179 176 170 171 169 162 156 155 156 158 159 155 151 149 148 149 151 154 154 149 148 153 152 151 156 158 160 162 163 162 161 162 162 159 158 158 157 157 160 162 164 165 164 164 163 162 163 163 165 166 167 170 171 171
144 324 305 256 282 279 268 250 227 205 188 176 171 175 176 173 181 193 204 180 167 201 236 253 163 225 261 289 220 178 177 179 184 178 170 169 164 157 155 156 156 159 160 157 154 156 155 155 155 156 157 152 150 153 154 153 156 156 157 161 162 161 162 162 160 158 157 157 157 158 161 163 164 165 165 165 164 164 164 165 166 167 170 172 173 172
187 342 4 294 291 291 283 239 201 194 184 170 170 173 173 176 184 194 205 188 185 226 243 158 254 254 262 303 324 172 160 166 176 173 170 167 163 160 161 160 159 161 161 159 159 161 160 159 157 156 156 157 154 156 158 160 159 156 155 159 160 161 163 164 161 160 158 157 158 160 161 163 165 166 166 166 164 164 164 164 165 168 171 173 173 173
277 284 87 316 294 303 348 124 177 177 176 174 173 170 169 174 181 195 207 172 180 249 251 111 278 272 269 32 158 152 146 157 169 174 174 171 167 163 163 164 163 162 163 163 161 161 161 161 160 158 159 162 160 158 158 158 161 162 159 159 160 162 165 166 164 161 159 158 159 160 162 165 167 167 166 164 163 163 164 164 165 168 170 171 172 172
337 287 266 334 306 323 26 82 155 151 155 173 184 180 174 175 180 189 193 168 186 219 220 196 262 268 269 124 151 160 160 165 172 177 178 175 171 168 168 168 165 164 166 166 162 161 164 165 166 165 165 166 166 161 155 155 160 163 160 158 161 164 167 168 165 162 160 160 160 161 164 166 166 164 163 163 163 164 165 165 166 168 169 170 172 172
312 278 299 330 314 347 19 97 135 124 134 186 204 190 177 173 168 159 174 202 199 194 182 207 240 276 98 160 166 173 179 178 178 181 182 179 176 175 173 169 166 168 169 169 169 169 168 168 169 168 167 167 166 161 158 161 164 164 164 163 163 165 168 168 166 164 162 161 161 162 164 165 164 164 164 165 165 165 166 166 167 168 168 170 172 172
275 271 296 309 288 344 8 94 134 134 164 201 209 182 174 173 173 172 194 216 200 190 213 239 258 340 200 191 183 184 189 188 184 183 183 182 178 174 173 172 173 175 174 173 174 174 172 169 167 164 161 160 161 161 164 170 171 170 171 170 167 168 169 168 167 165 163 160 160 162 164 165 167 168 168 167 167 166 166 166 166 166 167 169 170 171
254 266 263 258 269 330 354 153 149 153 189 47 30 53 168 169 177 183 209 219 196 203 241 256 247 236 213 207 211 207 194 182 181 182 181 181 178 173 175 179 180 180 181 179 175 174 176 172 168 164 160 159 161 164 167 171 173 172 172 170 168 170 171 169 167 166 163 161 163 164 166 169 170 169 168 167 166 164 162 161 163 165 167 169 169 169
246 278 285 256 259 331 170 165 154 158 332 45 71 117 123 103 148 180 211 219 197 205 220 230 228 222 215 214 212 195 173 152 163 183 184 181 180 179 181 183 183 184 185 183 176 173 173 170 165 163 160 160 164 167 168 169 171 172 171 169 167 168 170 169 167 165 164 165 166 169 171 172 172 170 169 168 165 162 159 160 165 168 170 174 174 171
258 247 273 292 4 20 171 150 82 250 175 100 104 132 166 174 155 171 205 216 198 197 199 199 199 192 199 201 175 156 148 141 160 194 196 190 187 185 184 184 183 183 182 179 175 166 161 160 158 156 157 160 166 170 171 170 169 169 169 170 170 167 168 169 168 167 168 169 171 173 174 175 174 171 169 168 166 163 164 170 173 171 173 178 178 176
294 265 273 318 14 342 231 115 105 148 146 122 140 156 286 260 220 191 210 200 156 180 192 193 192 178 176 174 161 154 149 152 190 208 198 193 189 184 183 181 176 172 170 168 165 159 155 157 158 159 161 163 168 171 172 172 171 167 166 170 173 170 168 170 171 171 171 173 175 176 176 177 177 174 171 170 169 169 173 179 178 176 177 180 180 180
302 304 337 8 24 319 289 114 134 137 95 63 276 309 339 236 193 186 209 201 161 167 195 194 188 181 178 170 162 164 168 182 229 214 186 187 187 181 180 179 173 169 168 165 164 162 160 159 159 162 165 166 168 172 174 174 172 166 164 169 172 170 171 174 175 176 177 178 179 179 178 179 179 177 174 172 173 176 178 179 180 181 182 182 182 181
279 345 8 332 345 24 356 5 169 156 64 281 279 311 348 183 171 177 197 197 153 194 194 190 187 182 177 171 170 180 197 215 319 319 170 174 178 175 174 176 175 173 173 172 169 162 158 157 158 163 169 170 169 171 173 172 169 166 165 167 169 172 177 180 181 181 181 181 180 180 180 180 180 179 177 176 179 180 178 178 182 183 182 182 181 180
306 24 34 320 316 27 329 316 182 143 358 280 294 324 312 196 181 180 185 148 11 261 197 187 191 181 176 178 179 186 219 283 314 301 161 160 166 170 170 171 171 169 171 171 167 159 155 158 162 167 173 172 166 166 168 168 168 169 169 169 172 177 181 183 183 181 179 179 180 181 181 182 182 180 180 181 182 179 177 181 184 181 179 180 180 179
283 348 42 272 269 296 296 305 58 102 132 314 323 329 279 205 171 161 99 22 295 286 220 185 192 183 180 187 182 159 276 299 321 193 164 163 165 167 166 166 164 164 164 163 162 160 159 160 165 168 169 168 166 166 167 168 168 169 170 175 179 181 181 182 180 178 176 178 181 181 181 182 182 181 182 184 183 180 181 185 184 179 178 179 179 178
186 323 319 269 244 335 36 74 74 97 95 358 340 331 306 358 72 6 328 278 234 283 276 208 195 182 184 189 175 120 311 339 53 139 167 171 167 163 163 162 160 160 158 156 159 162 160 160 165 167 165 167 169 168 168 169 168 168 173 179 182 179 179 179 178 177 178 180 181 182 182 184 184 184 185 185 185 184 184 185 183 181 179 178 176 174
171 220 299 282 230 318 5 47 55 353 312 339 344 338 359 352 331 287 300 341 358 248 246 240 203 186 190 191 169 128 43 26 111 148 164 168 167 167 167 164 159 159 160 160 162 163 160 160 164 164 163 168 171 171 172 171 168 170 177 181 181 178 177 177 177 177 179 180 182 183 183 184 185 185 186 187 186 185 185 184 183 180 178 177 174 171
184 177 251 282 250 246 299 327 331 306 299 300 274 267 301 317 313 256 266 306 345 257 233 316 305 185 188 187 165 136 94 55 149 166 169 169 170 170 170 169 163 161 163 162 161 162 162 161 160 159 160 166 170 173 174 174 173 173 177 181 181 178 174 174 176 177 178 180 182 182 182 183 184 186 187 188 187 185 184 184 181 178 178 177 174 171
334 130 159 249 257 238 260 276 295 329 329 318 302 268 276 303 333 328 288 319 355 3 326 298 312 227 183 177 164 151 158 162 165 176 177 170 167 167 168 169 164 163 163 161 159 161 162 159 156 154 155 162 170 174 176 178 179 178 178 179 179 175 171 173 176 177 178 180 182 182 183 184 184 185 187 188 189 188 187 185 181 179 179 178 176 176
217 165 169 261 305 359 173 249 300 357 329 314 316 315 293 311 337 339 317 328 342 350 348 288 295 306 162 169 165 158 166 173 169 168 169 167 166 167 169 167 165 165 165 160 157 158 158 155 154 154 155 159 170 177 179 182 184 183 180 178 177 174 173 175 176 176 177 180 181 183 185 184 183 184 186 188 189 189 189 189 186 183 182 182 180 179
172 197 224 192 323 339 278 271 295 302 279 287 299 321 331 332 340 344 341 335 331 346 5 350 334 100 134 158 162 157 162 177 173 162 164 169 169 170 172 168 164 165 162 156 155 157 157 156 157 159 160 164 174 180 181 183 186 185 182 179 178 177 176 176 176 177 178 179 180 181 183 183 182 182 184 186 188 188 188 189 189 188 188 189 188 185
136 228 275 153 257 305 290 276 279 215 124 323 325 346 340 323 325 328 332 342 355 10 23 25 25 45 104 132 146 151 155 164 167 154 158 164 164 165 169 164 161 164 162 158 158 160 159 157 159 162 164 168 174 178 180 182 184 184 183 181 180 179 177 176 176 177 177 178 179 181 182 183 182 183 184 187 189 192 194 195 194 194 196 199 200 199
192 208 171 172 216 161 137 238 255 177 126 20 342 346 345 327 315 322 336 354 6 10 12 21 31 43 66 84 110 156 151 146 154 151 151 160 162 158 157 155 156 160 158 155 157 157 156 158 162 164 166 169 171 173 175 179 183 185 184 182 181 180 178 176 174 175 176 178 179 180 181 181 183 185 188 189 190 193 197 200 201 201 203 208 210 211
229 217 192 198 187 104 268 259 229 187 160 209 299 319 329 328 324 343 3 358 353 357 352 359 19 36 44 43 36 74 128 130 142 142 139 147 153 153 155 156 155 155 154 154 156 156 157 161 163 164 167 171 172 170 171 176 181 183 184 185 185 183 181 177 174 174 176 179 180 180 180 181 183 186 189 190 191 192 194 199 203 205 207 212 215 216
Height
765 767 765 759 755 753 756 757 755 758 756 754 758 762 760 760 762 757 753 752 750 756 759 757 759 760 764 767 766 766 767 769 770 772 774 775 776 776 776 776 775 775 776 779 783 785 787 790 792 794 796 798 800 802 804 806 808 809 812 814 817 819 820 821 822 824 826 828 831 833 835 836 837 838 838 839 839 840 841 842 842 842 842 842 843 844
765 764 756 751 751 752 756 759 758 760 759 756 755 758 760 758 757 755 752 751 750 754 756 756 759 758 760 764 763 764 767 768 768 769 771 772 774 774 774 775 774 775 777 779 782 784 787 789 791 794 796 798 800 801 803 805 807 809 811 814 816 817 818 819 820 822 825 828 830 833 835 836 837 837 838 838 839 839 840 840 841 841 842 842 843 844
765 757 749 749 752 753 756 759 761 761 760 759 754 754 759 755 754 756 752 749 751 753 757 760 761 758 759 762 761 761 762 763 763 764 766 768 771 772 772 773 773 775 777 778 781 784 786 789 791 793 796 797 799 801 802 804 806 808 811 813 814 815 817 818 820 823 826 829 831 833 834 836 837 838 838 838 839 839 839 840 840 841 842 843 843 844
759 750 746 750 752 753 757 758 760 761 760 760 757 753 754 753 753 755 754 752 752 753 756 760 760 760 762 764 762 759 759 759 760 761 763 766 768 769 769 771 773 775 776 778 780 783 786 788 790 792 795 797 798 800 801 803 805 808 810 811 812 814 816 818 821 824 826 828 830 831 833 835 837 838 838 839 839 839 839 839 840 841 843 843 844 844
749 745 744 748 751 753 756 757 759 761 760 759 760 755 751 750 748 748 751 753 754 757 755 756 765 765 763 767 765 760 759 760 760 762 764 765 766 767 769 770 772 773 774 777 779 782 785 787 790 792 794 795 797 798 800 802 804 807 809 810 811 814 816 819 821 823 825 827 828 829 831 834 836 837 839 840 840 841 841 840 840 842 843 844 844 845
746 744 743 746 750 751 754 755 754 756 758 758 759 756 752 749 746 746 750 752 758 764 753 752 769 771 762 764 765 761 763 762 761 763 764 763 765 767 769 769 770 771 773 775 778 781 784 786 789 791 793 794 796 797 799 801 803 805 807 808 810 813 816 819 821 822 823 824 824 825 827 830 832 835 838 839 840 842 843 842 842 843 844 845 845 845
745 745 744 744 746 750 753 752 750 751 756 758 753 752 754 751 746 747 749 749 756 760 749 745 759 769 767 764 760 760 763 763 762 763 762 762 765 765 766 768 769 770 772 774 777 779 782 785 788 790 792 793 795 797 798 800 802 804 806 808 810 812 816 818 819 821 821 822 823 824 826 828 830 832 835 837 838 841 844 843 844 844 844 845 845 846
742 745 746 744 743 747 750 749 747 746 752 754 747 749 754 753 749 748 747 747 751 753 752 750 751 760 766 760 755 758 762 762 762 763 762 762 763 763 763 765 766 768 770 772 775 777 780 782 786 789 790 791 794 796 798 799 801 803 805 807 809 812 815 817 818 819 820 821 823 824 826 828 830 830 833 836 837 840 843 844 845 845 845 846 846 847
739 743 745 745 744 744 743 743 744 745 749 748 745 748 750 750 750 747 745 747 751 753 755 756 753 757 762 757 753 758 761 762 760 759 759 759 758 759 760 761 764 766 768 770 772 775 777 780 783 787 789 790 793 794 797 799 800 802 804 806 808 811 814 816 818 819 820 821 823 826 826 828 830 831 832 835 837 840 842 843 845 845 845 846 847 847
739 738 739 743 744 741 739 740 742 745 746 743 745 749 748 749 750 748 747 747 753 757 752 751 753 755 762 761 757 759 760 758 756 754 753 753 753 754 755 758 761 764 766 767 770 773 775 779 782 785 787 790 792 793 796 798 799 801 803 805 807 810 813 816 818 819 820 821 824 827 827 828 831 832 833 836 837 839 841 842 844 844 845 846 847 848
736 733 735 740 740 737 737 739 740 741 742 742 746 748 749 752 751 751 750 749 758 761 749 746 748 750 758 758 752 751 749 746 749 751 750 749 749 749 751 754 757 760 764 766 768 771 774 778 781 784 786 788 790 793 795 796 798 800 802 805 807 810 813 816 818 819 820 822 823 825 826 828 830 832 833 835 836 838 840 841 843 844 845 846 847 848
735 735 735 735 734 734 735 738 740 738 738 741 742 745 751 755 754 756 757 757 763 759 747 743 747 752 753 747 744 741 737 738 742 744 745 744 744 744 746 750 753 757 762 765 767 770 773 776 779 782 785 787 789 792 794 795 797 799 802 804 807 810 814 816 818 820 821 821 823 825 826 828 829 830 832 833 835 837 838 841 843 844 846 846 847 848
737 734 733 731 731 730 733 738 742 740 739 740 739 745 754 757 760 763 760 759 758 752 751 747 746 753 747 734 735 737 733 734 733 733 735 736 737 740 743 747 751 755 759 763 766 768 771 774 777 780 783 785 788 790 792 793 795 798 800 803 807 810 813 816 816 817 818 820 821 824 826 828 829 830 832 833 834 836 838 841 843 844 846 846 847 848
741 735 731 731 730 727 728 733 738 740 738 736 734 739 747 751 761 766 758 757 756 750 754 752 745 749 742 727 727 729 728 727 725 726 727 729 733 737 741 745 749 753 756 760 764 766 769 772 776 779 781 783 786 788 790 792 794 796 799 802 805 809 812 814 815 815 817 820 821 824 826 827 829 831 833 834 834 835 838 841 843 844 845 846 847 848
742 739 730 727 727 724 724 725 726 730 732 731 727 729 736 739 746 754 750 751 754 751 755 757 749 743 736 728 722 719 720 721 721 723 724 727 732 736 740 745 748 751 754 758 762 765 768 771 774 777 779 782 784 786 789 791 793 795 798 801 804 808 811 812 814 816 817 820 821 823 825 827 828 831 833 835 835 835 838 841 843 844 845 846 847 848
735 733 723 722 723 721 723 722 719 725 734 733 728 730 735 729 732 746 748 746 748 749 754 757 747 734 727 726 724 720 721 722 723 724 727 731 734 736 741 743 745 749 752 756 760 763 766 769 772 775 777 780 782 785 788 789 792 795 798 801 804 807 810 811 813 815 816 819 821 823 824 826 829 831 833 834 835 836 838 841 842 844 845 846 847 848
729 728 721 722 723 719 719 721 719 722 729 733 732 732 730 723 726 742 752 752 748 747 752 753 742 732 728 728 728 727 725 726 726 727 729 732 734 736 739 740 743 746 750 753 756 760 764 767 770 773 776 778 780 783 786 788 791 794 797 800 804 806 808 810 812 814 816 817 820 822 824 826 829 831 833 834 835 837 839 841 842 844 845 846 847 848
725 725 722 720 722 719 716 717 719 718 720 729 733 726 723 727 729 733 744 752 749 745 750 752 742 734 731 732 734 732 729 729 728 727 730 732 734 735 735 736 739 743 747 751 754 758 762 765 768 771 774 776 779 782 785 788 790 793 796 799 803 805 807 809 811 813 815 816 818 822 824 825 828 831 833 834 835 837 839 841 842 844 845 846 848 849
722 724 724 719 717 719 717 719 723 721 719 723 723 718 723 733 737 736 742 748 747 748 750 750 747 738 727 727 734 732 727 727 728 728 729 731 731 731 731 734 738 741 746 749 752 756 759 763 766 769 773 775 778 782 784 787 790 793 796 798 801 804 806 808 810 812 814 815 818 821 823 825 827 829 832 833 835 837 839 841 842 844 845 846 848 849
721 723 726 720 715 717 720 722 725 724 722 722 719 719 724 728 729 733 738 738 739 747 749 747 749 740 721 716 721 721 719 720 725 728 726 725 725 724 726 731 735 738 743 747 750 753 757 761 764 767 771 774 777 781 783 786 789 792 795 798 800 803 805 807 809 811 813 815 817 820 823 825 826 829 832 833 835 837 839 841 843 844 845 846 848 850
722 723 725 722 719 720 721 721 719 719 723 724 722 724 727 727 727 729 733 733 733 741 746 747 746 731 712 707 708 707 708 710 716 721 720 718 718 719 722 727 731 735 740 745 748 751 755 759 763 766 770 774 777 780 783 786 789 791 794 796 799 802 805 807 809 811 813 815 817 820 822 824 826 828 831 833 835 837 839 841 843 844 845 847 848 850
722 723 722 723 723 721 718 715 712 713 717 720 722 725 725 725 728 733 738 736 732 736 740 741 738 720 704 704 703 701 703 704 707 711 712 713 714 717 722 724 729 733 738 743 745 749 753 757 762 766 769 773 776 779 783 785 788 791 793 796 799 802 804 807 809 811 813 815 817 819 821 823 826 828 830 833 835 837 839 841 843 845 846 847 849 851
720 721 721 722 722 719 717 716 713 711 715 717 719 722 721 721 724 729 736 735 733 739 738 735 732 715 706 712 711 708 708 705 706 709 710 713 715 718 723 725 729 733 737 742 744 747 752 756 761 765 768 772 775 778 782 784 787 790 792 795 798 801 804 806 809 810 812 815 817 819 821 823 826 828 830 833 835 837 839 841 843 845 846 847 849 852
719 721 721 722 722 718 715 717 715 712 716 720 719 718 718 719 719 720 726 727 731 737 734 735 733 714 706 714 713 711 712 707 708 711 712 716 718 721 724 726 730 734 737 742 744 747 752 756 760 764 768 771 774 778 781 784 787 790 792 795 798 801 803 805 808 810 812 815 817 819 821 823 825 828 830 833 835 837 840 842 844 845 846 848 850 852
718 722 720 720 727 728 724 724 724 719 716 716 716 717 716 716 719 723 726 726 729 731 727 732 732 710 704 714 711 708 711 708 708 711 711 715 719 721 724 726 730 735 738 741 745 748 752 756 760 763 767 770 773 777 781 784 787 789 791 794 797 800 802 804 807 810 811 814 816 819 821 823 826 828 831 833 835 837 840 842 844 845 847 848 850 852
717 723 718 716 725 732 729 725 722 717 713 711 713 718 718 716 718 722 726 728 731 733 730 729 723 703 697 708 711 710 711 711 711 712 711 714 717 719 724 727 730 734 737 741 744 748 752 756 760 762 766 769 773 776 780 783 786 788 791 794 797 799 801 803 807 809 811 813 816 818 821 824 826 829 831 833 835 837 840 842 844 845 847 849 850 852
720 722 719 716 716 716 715 714 711 709 713 716 716 718 720 719 717 717 724 727 726 730 730 720 715 707 696 698 708 713 713 713 713 712 712 713 715 718 723 727 730 733 736 740 744 748 751 755 759 762 765 768 772 776 779 782 785 788 790 793 796 798 799 802 806 808 811 813 815 819 821 824 826 828 831 833 835 837 840 841 843 845 846 848 850 851
724 722 719 720 716 711 710 712 710 707 710 714 714 716 719 720 720 718 721 721 719 727 726 713 713 716 700 690 701 711 712 714 714 711 711 711 713 717 723 727 731 733 736 740 745 748 751 755 759 762 765 767 772 776 779 781 785 787 789 793 796 798 799 802 806 808 811 813 816 819 821 824 826 829 831 833 835 837 839 841 843 844 846 848 849 851
723 722 720 720 717 712 710 711 712 709 707 707 710 715 717 720 721 720 720 719 717 720 717 710 714 714 698 689 699 706 708 711 712 710 709 710 713 718 723 728 730 733 736 740 744 747 750 754 757 760 764 767 771 775 778 781 784 786 789 792 794 797 800 802 806 808 811 814 816 819 822 824 827 829 831 833 835 837 839 841 843 844 846 848 849 851
720 719 721 721 716 711 710 712 714 712 710 709 709 710 714 718 719 716 716 718 718 715 712 716 721 711 697 696 702 704 705 708 709 710 709 710 714 718 723 726 729 732 735 738 742 746 748 752 755 759 764 767 770 773 777 781 783 785 788 791 793 796 800 803 805 808 811 814 816 819 822 824 827 829 831 833 835 837 839 841 843 844 846 847 849 851
719 719 722 721 716 711 712 715 715 712 710 710 711 710 711 715 717 716 716 720 724 719 715 722 725 709 699 705 709 706 706 708 709 710 709 709 712 717 721 724 727 731 734 736 740 744 747 751 754 757 762 766 768 771 775 778 782 785 788 790 792 795 799 802 805 807 810 813 816 819 822 824 827 829 831 834 836 838 840 841 843 844 845 847 849 851
719 720 719 719 717 711 711 717 716 710 710 712 715 715 713 713 714 715 717 720 720 715 715 723 719 701 699 710 712 709 707 707 708 709 708 708 710 714 718 721 724 728 731 734 738 742 746 749 752 755 759 763 767 770 772 776 780 784 787 789 791 794 798 802 804 807 810 813 816 819 821 824 827 830 832 834 836 838 840 841 843 844 845 847 849 851
722 720 717 720 720 711 712 716 710 709 716 717 711 709 709 709 710 713 716 715 712 709 712 714 705 698 704 711 710 709 707 706 705 705 705 706 708 712 716 718 722 725 728 731 734 738 742 746 750 754 758 762 765 767 770 774 779 783 786 789 791 794 797 801 804 807 810 813 816 818 821 824 826 829 831 833 835 837 840 841 843 844 845 846 848 850
724 720 718 721 718 711 713 712 705 712 720 714 706 704 704 703 704 707 709 707 706 707 705 703 702 708 713 710 706 707 706 703 702 701 701 703 706 711 715 717 720 722 725 729 732 735 740 744 749 753 756 760 764 766 769 773 778 782 785 787 790 793 797 800 803 806 809 812 815 818 820 823 825 827 829 831 834 836 839 841 843 844 845 846 848 850
723 720 720 722 718 715 714 709 711 719 714 705 709 712 708 704 701 700 699 698 702 705 702 700 704 709 711 708 704 705 704 703 703 702 702 703 705 709 713 715 717 720 722 726 729 733 737 741 746 751 755 759 763 766 769 772 777 781 784 786 788 791 796 798 802 805 808 812 815 817 819 821 823 826 828 831 833 836 839 841 843 845 847 847 848 850
719 719 720 720 718 717 713 709 712 715 708 705 713 715 711 709 705 702 701 698 698 701 700 699 702 706 709 708 705 704 703 703 704 703 703 702 703 705 708 710 713 716 719 722 726 730 735 739 744 748 754 759 763 766 769 772 776 780 783 786 787 790 794 797 800 803 806 809 813 815 817 820 822 825 828 830 833 835 838 840 843 845 847 848 848 848
717 717 717 716 718 718 715 710 708 708 707 706 707 707 706 704 700 699 699 695 693 699 701 700 702 707 709 707 705 703 702 704 707 706 703 701 701 703 704 707 710 714 718 722 726 731 735 740 744 748 753 758 762 765 768 771 775 778 782 786 788 790 793 797 799 802 804 807 810 813 816 818 820 823 826 829 831 833 835 839 841 843 844 846 848 849
717 716 714 715 721 721 715 709 709 711 710 705 701 701 702 702 700 699 696 692 694 700 702 700 701 706 708 707 706 703 702 706 709 705 700 699 701 703 705 708 711 714 718 722 727 731 736 740 744 748 752 756 760 763 766 770 773 777 780 784 788 790 793 796 798 800 802 804 808 811 814 816 819 821 824 826 829 831 834 837 840 842 843 844 847 849
718 716 713 712 718 722 715 708 711 713 709 703 700 699 701 706 704 699 698 696 693 697 701 701 702 706 706 705 704 703 703 704 701 696 696 698 699 702 705 709 711 714 718 721 725 729 734 739 744 748 751 755 758 761 765 768 772 775 778 782 786 789 791 794 796 798 799 802 806 809 812 814 817 820 822 824 828 830 833 836 839 841 842 844 846 848
718 714 714 713 716 722 719 710 710 710 705 702 701 699 704 706 701 701 707 701 691 693 699 700 701 704 705 703 703 703 702 699 695 692 693 696 699 702 705 708 710 713 717 721 725 729 733 738 743 747 751 753 756 760 763 767 771 774 777 780 783 786 789 791 793 796 798 802 805 808 811 814 816 819 822 824 827 829 832 835 838 840 842 844 845 847
719 717 722 723 720 721 718 711 708 707 703 701 701 701 705 704 699 702 706 697 689 692 697 698 699 701 702 700 700 701 701 699 697 695 693 694 698 701 704 707 710 713 717 721 725 729 734 738 742 745 749 752 755 759 762 766 770 773 776 778 781 783 785 788 791 795 798 802 805 807 810 813 815 818 822 825 827 829 832 834 836 838 840 843 845 846
721 720 725 727 722 721 718 712 709 708 703 702 703 703 703 701 699 700 697 692 692 693 694 697 699 698 700 699 697 699 699 698 698 697 695 695 698 700 703 707 710 713 717 721 725 729 733 737 742 745 748 752 755 758 761 764 768 771 774 777 779 781 784 787 791 795 798 801 804 807 810 813 815 818 821 824 826 829 831 834 836 837 839 842 843 845
720 720 721 721 721 722 718 712 712 710 705 704 704 702 700 699 698 697 693 692 694 693 693 696 697 697 699 698 698 700 699 698 699 699 698 699 700 701 704 706 709 713 717 720 725 728 732 736 741 744 748 751 754 757 760 763 766 769 772 775 778 781 784 787 790 793 797 799 803 806 809 811 814 817 820 823 825 828 830 833 835 837 838 840 842 844
719 720 719 718 719 718 712 709 711 709 705 706 705 702 700 699 699 699 696 693 694 695 695 694 694 696 697 696 698 701 700 700 701 700 700 702 702 704 706 707 710 714 717 720 724 727 731 735 739 743 747 749 752 756 759 761 764 768 771 774 777 780 783 786 790 793 796 799 802 805 808 811 813 816 818 821 824 826 829 831 834 836 837 839 840 842
717 718 720 719 718 716 713 710 710 708 706 708 707 704 702 700 700 701 699 695 694 695 695 694 693 695 696 695 698 701 700 701 703 702 702 703 703 704 706 708 710 713 717 720 724 727 730 734 737 742 746 749 752 754 757 760 763 766 769 772 776 779 782 786 790 793 795 798 801 803 807 810 813 815 817 820 822 825 827 829 832 834 836 838 839 841
720 721 722 720 717 716 714 712 711 710 708 707 705 704 703 701 700 700 698 696 694 695 696 695 694 694 695 696 698 700 701 702 703 703 703 703 704 706 707 708 711 714 716 720 723 727 731 734 737 741 745 749 752 754 756 759 761 764 767 770 774 777 781 784 788 791 794 797 800 802 805 808 811 814 816 819 821 824 826 828 830 832 834 837 838 840
721 722 721 718 716 716 714 711 710 710 709 708 706 702 700 700 700 700 699 697 696 697 697 697 696 696 696 696 697 699 700 701 702 703 704 704 705 706 707 709 712 714 717 719 723 727 730 733 737 741 745 748 751 753 756 758 760 763 766 769 772 776 780 783 787 790 793 796 799 802 804 806 810 812 815 818 820 822 825 827 829 830 832 834 836 838
719 720 718 718 717 715 712 710 709 709 710 710 708 704 702 701 700 699 699 699 698 698 698 697 696 696 696 696 697 698 699 701 702 702 702 704 705 706 708 710 712 714 717 720 723 727 730 732 736 740 743 746 749 751 754 757 759 762 765 767 771 775 778 782 785 788 791 795 798 800 802 805 808 811 814 816 818 820 823 825 827 829 830 832 833 835
720 719 717 718 716 713 711 710 708 708 708 708 706 705 705 704 702 700 700 699 698 698 697 697 696 696 695 697 697 697 698 701 701 701 702 704 705 707 708 710 712 715 717 720 723 726 728 732 735 739 741 744 747 750 753 756 758 761 763 766 770 773 777 780 783 787 790 793 796 799 801 804 807 809 812 814 816 819 821 823 826 828 829 831 832 833
719 717 717 717 714 712 711 710 708 709 709 707 706 705 705 706 704 701 699 699 698 698 699 698 698 697 696 697 697 697 698 700 701 702 702 703 705 707 709 711 714 716 718 721 724 726 728 731 735 738 741 744 746 749 753 755 758 760 763 766 769 772 775 778 782 786 789 792 794 797 799 802 805 807 809 812 814 817 820 823 825 827 828 830 831 833
714 713 714 712 710 710 710 709 710 710 709 708 708 707 706 706 705 702 701 701 700 700 700 699 698 698 698 698 698 697 698 700 701 702 703 705 706 708 709 711 713 716 718 721 724 726 729 732 734 738 741 743 745 748 751 754 756 759 761 764 767 770 773 776 780 784 787 789 792 794 797 800 803 805 808 810 812 815 818 821 824 825 826 828 830 832